Hourly Data Report for October 08, 2013

All times are specified in Local Standard Time (LST). Add 1 hour to adjust for Daylight Saving Time where and when it is observed.

FORT LIARD
NORTHWEST TERRITORIES

60°14'00.000" N
123°28'00.000" W
213.40 m
2201579
71497
WJL

Download Data

Hourly Data (October 2013)
Hourly Data Report for October 8, 2013
Temp Definition
°C
Dew Point Temp Definition
°C
Rel Hum Definition
%
Wind Dir Definition
10's deg

Wind Spd Definition
km/h
Visibility Definition
km
Stn Press Definition
kPa
Hmdx Definition


Wind Chill Definition


Weather Definition


TIME
00:00 3.4 2.1 91 3 9   98.38     LegendNANA
01:00 3.4 1.8 89 3 11   98.49     LegendNANA
02:00 3.2 1.9 91 4 7   98.59     LegendNANA
03:00 3.3 2.1 92   0   98.70     LegendNANA
04:00 2.9 2.2 95   0   98.79     LegendNANA
05:00 2.6 1.6 93   0   98.89     LegendNANA
06:00 2.3 1.6 95   0   98.96     LegendNANA
07:00 1.5 1.0 96   0   99.04     LegendNANA
08:00 0.9 0.4 96   0   99.08     LegendNANA
09:00 2.4 2.0 97 23 4   99.11     LegendNANA
10:00 3.3 2.6 95   0   99.14     LegendNANA
11:00 4.0 3.0 93 24 4   99.15     LegendNANA
12:00 4.7 3.2 90 20 4   99.15     LegendNANA
13:00 6.4 3.7 83 27 2   99.09     LegendNANA
14:00 7.9 4.2 77 21 7   99.03     LegendNANA
15:00 8.9 4.0 71 20 13   98.99     LegendNANA
16:00 7.8 3.3 73 21 17   98.96     LegendNANA
17:00 7.9 3.5 74 20 9   98.86     LegendNANA
18:00 6.3 3.0 79 18 6   98.76     LegendNANA
19:00 5.8 2.9 82 20 2   98.69     LegendNANA
20:00 3.3 1.9 91 17 2   98.58     LegendNANA
21:00 2.3 1.4 94 19 2   98.48     LegendNANA
22:00 1.6 0.9 95   0   98.37     LegendNANA
23:00 2.2 1.5 95 25 4   98.26     LegendNANA

Notes on Data Quality.

Legend

  • E = Estimated
  • M = Missing
  • NA = Not Available
  • ‡ = Partner data that is not subject to review by the National Climate Archives
Date modified: